User: anonymous   Login
Location: Unspecified
(30.8073°N, 0.0000°E)
Time: 12:51:26
(UTC+00:00)
Language:

DX 1 - Orbit

View from above orbital plane
View from above orbital plane
View from above satellite
View from above satellite

Ground track
Ground track

The orbit data is extracted from the following two-line orbital elements,

1 40071U 14037C   19296.07510466  .00000099  00000-0  20171-4 0  9996
2 40071  98.4421  96.5343 0008391 172.8854 187.2480 14.81300282285967
Epoch (UTC): 23 October 2019 01:48:09
Eccentricity: 0.0008391
inclination: 98.4421°
perigee height: 619 km
apogee height: 631 km
right ascension of ascending node: 96.5343°
argument of perigee: 172.8854°
revolutions per day: 14.81300282
mean anomaly at epoch: 187.2480°
orbit number at epoch: 28596

The dashed part of the orbit path shows where the satellite is in the earth's shadow,  

DLR